MILESOVKA Weather Reports


Display with metric or nautical units.
time (UTC)temp
F
wind
direction
speed
MPH
gust
MPH
rain 1hr
in
rain 24hr
in
rain mn
in
humidity
%
barometer
mb
20260509171745 52 90 7.0 0.0 0.00 0.00 0.00 76
20260509162046 54 90 7.0 0.0 0.00 0.00 0.00 76
20260509151745 55 90 5.0 0.0 0.00 0.00 0.00 71
20260509141745 54 60 7.0 0.0 0.00 0.00 0.00 71
20260509131844 54 60 2.0 0.0 0.00 0.00 0.00 76
20260509121745 50 80 2.0 0.0 0.00 0.00 0.00 81
20260509111745 50 0 0.0 0.0 0.00 0.00 0.00 81
20260509101945 48 80 2.0 0.0 0.00 0.00 0.00 87
20260509091745 48 0 0.0 0.0 0.00 0.00 0.00 87
20260509081746 48 130 2.0 0.0 0.00 0.00 0.00 87
20260509071844 48 90 2.0 0.0 0.00 0.00 0.00 81
20260509061745 45 70 2.0 0.0 0.00 0.00 0.00 99
20260509051744 43 110 5.0 0.0 0.00 0.00 0.00 99
20260509041946 41 150 7.0 0.0 0.00 0.00 0.00 99
20260509031745 41 140 12.0 0.0 0.00 0.00 0.00 99
20260509021745 41 110 7.0 0.0 0.00 0.00 0.00 99
20260509011845 41 100 9.0 0.0 0.00 0.00 0.00 99
20260509001745 41 70 12.0 0.0 0.00 0.00 0.00 99
20260508231744 41 60 14.0 0.0 0.00 0.00 0.00 99
20260508221945 41 40 14.0 0.0 0.00 0.00 0.00 99
20260508211744 41 50 12.0 0.0 0.00 0.00 0.00 99
20260508201745 43 40 12.0 0.0 0.00 0.00 0.00 99
20260508191846 43 20 18.0 0.0 0.00 0.00 0.00 99
20260508181744 43 20 20.0 0.0 0.00 0.00 0.00 99